Date,TemperatureHighF,TemperatureAvgF,TemperatureLowF,DewpointHighF,DewpointAvgF,DewpointLowF,HumidityHigh,HumidityAvg,HumidityLow,PressureMaxIn,PressureMinIn,WindSpeedMaxMPH,WindSpeedAvgMPH,GustSpeedMaxMPH,PrecipitationSumIn
2013-1-1,25,17,12,-100,-100,-100,0,0,100,0.00,40.00,0,-999,0,0.00
2013-1-2,25,15,10,-100,-100,-100,0,0,100,0.00,40.00,0,-999,0,0.00
2013-1-3,26,15,9,-100,-100,-100,0,0,100,0.00,40.00,0,-999,0,0.00
2013-1-4,36,20,10,-100,-100,-100,0,0,100,0.00,40.00,0,-999,0,0.00
2013-1-5,35,27,22,-100,-100,-100,0,0,100,0.00,40.00,0,-999,0,0.00
2013-1-6,38,30,22,-100,-100,-100,0,0,100,0.00,40.00,0,-999,0,0.00
2013-1-7,41,32,23,-100,-100,-100,0,0,100,0.00,40.00,0,-999,0,0.00
2013-1-8,41,39,37,-100,-100,-100,0,0,100,0.00,40.00,0,-999,0,0.00
2013-1-9,43,40,35,-100,-100,-100,0,0,100,0.00,40.00,0,-999,0,0.00
2013-1-10,35,29,21,-100,-100,-100,0,0,100,0.00,40.00,0,-999,0,0.00
2013-1-11,21,15,7,-100,-100,-100,0,0,100,0.00,40.00,0,-999,0,0.00
2013-1-12,18,6,-2,-100,-100,-100,0,0,100,0.00,40.00,0,-999,0,0.00
2013-1-13,18,8,-2,-100,-100,-100,0,0,100,0.00,40.00,0,-999,0,0.00
2013-1-14,20,14,6,-100,-100,-100,0,0,100,0.00,40.00,0,-999,0,0.00
2013-1-15,37,26,19,-100,-100,-100,0,0,100,0.00,40.00,0,-999,0,0.00
2013-1-16,47,33,24,-100,-100,-100,0,0,100,0.00,40.00,0,-999,0,0.00
2013-1-17,43,28,19,-100,-100,-100,0,0,100,0.00,40.00,0,-999,0,0.00
2013-1-18,51,35,22,-100,-100,-100,0,0,100,0.00,40.00,0,-999,0,0.00
2013-1-19,44,30,21,-100,-100,-100,0,0,100,0.00,40.00,0,-999,0,0.00
2013-1-20,49,34,24,-100,-100,-100,0,0,100,0.00,40.00,0,-999,0,0.00
2013-1-21,53,31,23,-100,-100,-100,0,0,100,0.00,40.00,0,-999,0,0.00
2013-1-22,43,26,18,-100,-100,-100,0,0,100,0.00,40.00,0,-999,0,0.00
2013-1-23,49,30,21,-100,-100,-100,0,0,100,0.00,40.00,0,-999,0,0.00
2013-1-24,44,39,31,-100,-100,-100,0,0,100,0.00,40.00,0,-999,0,0.00
2013-1-25,44,38,31,-100,-100,-100,0,0,100,0.00,40.00,0,-999,0,0.00
2013-1-26,43,36,32,-100,-100,-100,0,0,100,0.00,40.00,0,-999,0,0.00
2013-1-27,34,29,25,-100,-100,-100,0,0,100,0.00,40.00,0,-999,0,0.00
2013-1-28,31,27,23,-100,-100,-100,0,0,100,0.00,40.00,0,-999,0,0.00
2013-1-29,31,27,25,-100,-100,-100,0,0,100,0.00,40.00,0,-999,0,0.00
2013-1-30,38,35,28,-100,-100,-100,0,0,100,0.00,40.00,0,-999,0,0.00
2013-1-31,41,39,36,-100,-100,-100,0,0,100,0.00,40.00,0,-999,0,0.00
2013-2-1,41,37,34,-100,-100,-100,0,0,100,0.00,40.00,0,-999,0,0.00
2013-2-2,46,33,26,-100,-100,-100,0,0,100,0.00,40.00,0,-999,0,0.00
2013-2-3,44,34,25,-100,-100,-100,0,0,100,0.00,40.00,0,-999,0,0.00
2013-2-4,41,37,30,-100,-100,-100,0,0,100,0.00,40.00,0,-999,0,0.00
2013-2-5,49,37,30,-100,-100,-100,0,0,100,0.00,40.00,0,-999,0,0.00
2013-2-6,38,33,25,-100,-100,-100,0,0,100,0.00,40.00,0,-999,0,0.00
2013-2-7,41,31,25,-100,-100,-100,0,0,100,0.00,40.00,0,-999,0,0.00
2013-2-8,37,31,25,-100,-100,-100,0,0,100,0.00,40.00,0,-999,0,0.00
2013-2-9,33,30,28,-100,-100,-100,0,0,100,0.00,40.00,0,-999,0,0.00
2013-2-10,34,28,23,-100,-100,-100,0,0,100,0.00,40.00,0,-999,0,0.00
2013-2-11,35,28,19,-100,-100,-100,0,0,100,0.00,40.00,0,-999,0,0.00
2013-2-12,38,35,31,-100,-100,-100,0,0,100,0.00,40.00,0,-999,0,0.00
2013-2-13,41,37,34,-100,-100,-100,0,0,100,0.00,40.00,0,-999,0,0.00
2013-2-14,37,35,32,-100,-100,-100,0,0,100,0.00,40.00,0,-999,0,0.00
2013-2-15,47,38,30,-100,-100,-100,0,0,100,0.00,40.00,0,-999,0,0.00
2013-2-16,53,38,26,-100,-100,-100,0,0,100,0.00,40.00,0,-999,0,0.00
2013-2-17,35,31,27,-100,-100,-100,0,0,100,0.00,40.00,0,-999,0,0.00
2013-2-18,39,30,19,-100,-100,-100,0,0,100,0.00,40.00,0,-999,0,0.00
2013-2-19,41,32,27,-100,-100,-100,0,0,100,0.00,40.00,0,-999,0,0.00
2013-2-20,34,30,22,-100,-100,-100,0,0,100,0.00,40.00,0,-999,0,0.00
2013-2-21,32,26,12,-100,-100,-100,0,0,100,0.00,40.00,0,-999,0,0.00
2013-2-22,39,32,25,-100,-100,-100,0,0,100,0.00,40.00,0,-999,0,0.00
2013-2-23,34,29,22,-100,-100,-100,0,0,100,0.00,40.00,0,-999,0,0.00
2013-2-24,35,28,21,-100,-100,-100,0,0,100,0.00,40.00,0,-999,0,0.00
2013-2-25,35,28,20,-100,-100,-100,0,0,100,0.00,40.00,0,-999,0,0.00
2013-2-26,33,28,18,-100,-100,-100,0,0,100,0.00,40.00,0,-999,0,0.00
2013-2-27,43,28,12,-100,-100,-100,0,0,100,0.00,40.00,0,-999,0,0.00
2013-2-28,42,34,22,-100,-100,-100,0,0,100,0.00,40.00,0,-999,0,0.00
2013-3-1,48,41,33,-100,-100,-100,0,0,100,0.00,40.00,0,-999,0,0.00
2013-3-2,55,41,30,-100,-100,-100,0,0,100,0.00,40.00,0,-999,0,0.00
2013-3-3,40,33,27,-100,-100,-100,0,0,100,0.00,40.00,0,-999,0,0.00
2013-3-4,39,29,22,-100,-100,-100,0,0,100,0.00,40.00,0,-999,0,0.00
2013-3-5,46,30,19,-100,-100,-100,0,0,100,0.00,40.00,0,-999,0,0.00
2013-3-6,49,35,29,-100,-100,-100,0,0,100,0.00,40.00,0,-999,0,0.00
2013-3-7,44,36,30,-100,-100,-100,0,0,100,0.00,40.00,0,-999,0,0.00
2013-3-8,44,33,21,-100,-100,-100,0,0,100,0.00,40.00,0,-999,0,0.00
2013-3-9,41,34,26,-100,-100,-100,0,0,100,0.00,40.00,0,-999,0,0.00
2013-3-10,49,39,26,-100,-100,-100,0,0,100,0.00,40.00,0,-999,0,0.00
2013-3-11,44,39,36,-100,-100,-100,0,0,100,0.00,40.00,0,-999,0,0.00
2013-3-12,55,41,33,-100,-100,-100,0,0,100,0.00,40.00,0,-999,0,0.00
2013-3-13,57,44,35,-100,-100,-100,0,0,100,0.00,40.00,0,-999,0,0.00
2013-3-14,65,46,34,-100,-100,-100,0,0,100,0.00,40.00,0,-999,0,0.00
2013-3-15,53,46,39,-100,-100,-100,0,0,100,0.00,40.00,0,-999,0,0.00
2013-3-16,48,41,35,-100,-100,-100,0,0,100,0.00,40.00,0,-999,0,0.00
2013-3-17,36,31,26,-100,-100,-100,0,0,100,0.00,40.00,0,-999,0,0.00
2013-3-18,35,30,26,-100,-100,-100,0,0,100,0.00,40.00,0,-999,0,0.00
2013-3-19,49,36,22,-100,-100,-100,0,0,100,0.00,40.00,0,-999,0,0.00
2013-3-20,53,40,31,-100,-100,-100,0,0,100,0.00,40.00,0,-999,0,0.00
2013-3-21,34,30,26,-100,-100,-100,0,0,100,0.00,40.00,0,-999,0,0.00
2013-3-22,32,27,22,-100,-100,-100,0,0,100,0.00,40.00,0,-999,0,0.00
2013-3-23,33,26,16,-100,-100,-100,0,0,100,0.00,40.00,0,-999,0,0.00
2013-3-24,41,28,18,-100,-100,-100,0,0,100,0.00,40.00,0,-999,0,0.00
2013-3-25,47,34,18,-100,-100,-100,0,0,100,0.00,40.00,0,-999,0,0.00
2013-3-26,54,41,31,-100,-100,-100,0,0,100,0.00,40.00,0,-999,0,0.00
2013-3-27,57,42,31,-100,-100,-100,0,0,100,0.00,40.00,0,-999,0,0.00
2013-3-28,55,46,33,-100,-100,-100,0,0,100,0.00,40.00,0,-999,0,0.00
2013-3-29,50,42,35,-100,-100,-100,0,0,100,0.00,40.00,0,-999,0,0.00
2013-3-30,59,47,35,-100,-100,-100,0,0,100,0.00,40.00,0,-999,0,0.00
2013-3-31,62,47,31,-100,-100,-100,0,0,100,0.00,40.00,0,-999,0,0.00
2013-4-1,63,49,33,-100,-100,-100,0,0,100,0.00,40.00,0,-999,0,0.00
2013-4-2,60,49,36,-100,-100,-100,0,0,100,0.00,40.00,0,-999,0,0.00
2013-4-3,62,50,40,-100,-100,-100,0,0,100,0.00,40.00,0,-999,0,0.00
2013-4-4,64,52,41,-100,-100,-100,0,0,100,0.00,40.00,0,-999,0,0.00
2013-4-5,51,45,40,-100,-100,-100,0,0,100,0.00,40.00,0,-999,0,0.00
2013-4-6,48,42,40,-100,-100,-100,0,0,100,0.00,40.00,0,-999,0,0.00
2013-4-7,44,40,36,-100,-100,-100,0,0,100,0.00,40.00,0,-999,0,0.00
2013-4-8,39,35,29,-100,-100,-100,0,0,100,0.00,40.00,0,-999,0,0.00
2013-4-9,47,34,21,-100,-100,-100,0,0,100,0.00,40.00,0,-999,0,0.00
2013-4-10,51,43,33,-100,-100,-100,0,0,100,0.00,40.00,0,-999,0,0.00
2013-4-11,45,42,37,-100,-100,-100,0,0,100,0.00,40.00,0,-999,0,0.00
2013-4-12,59,44,30,-100,-100,-100,0,0,100,0.00,40.00,0,-999,0,0.00
2013-4-13,44,36,29,-100,-100,-100,0,0,100,0.00,40.00,0,-999,0,0.00
2013-4-14,42,35,27,-100,-100,-100,0,0,100,0.00,40.00,0,-999,0,0.00
2013-4-15,37,30,24,-100,-100,-100,0,0,100,0.00,40.00,0,-999,0,0.00
2013-4-16,36,29,20,-100,-100,-100,0,0,100,0.00,40.00,0,-999,0,0.00
2013-4-17,43,32,19,-100,-100,-100,0,0,100,0.00,40.00,0,-999,0,0.00
2013-4-18,44,40,30,-100,-100,-100,0,0,100,0.00,40.00,0,-999,0,0.00
2013-4-19,49,43,38,-100,-100,-100,0,0,100,0.00,40.00,0,-999,0,0.00
2013-4-20,48,44,41,-100,-100,-100,0,0,100,0.00,40.00,0,-999,0,0.00
2013-4-21,48,42,26,-100,-100,-100,0,0,100,0.00,40.00,0,-999,0,0.00
2013-4-22,40,31,23,-100,-100,-100,0,0,100,0.00,40.00,0,-999,0,0.00
2013-4-23,47,37,25,-100,-100,-100,0,0,100,0.00,40.00,0,-999,0,0.00
2013-4-24,56,44,29,-100,-100,-100,0,0,100,0.00,40.00,0,-999,0,0.00
2013-4-25,60,51,38,-100,-100,-100,0,0,100,0.00,40.00,0,-999,0,0.00
2013-4-26,64,54,40,-100,-100,-100,0,0,100,0.00,40.00,0,-999,0,0.00
2013-4-27,65,56,42,-100,-100,-100,0,0,100,0.00,40.00,0,-999,0,0.00
2013-4-28,57,51,47,-100,-100,-100,0,0,100,0.00,40.00,0,-999,0,0.00
2013-4-29,50,44,36,-100,-100,-100,0,0,100,0.00,40.00,0,-999,0,0.00
2013-4-30,41,36,30,-100,-100,-100,0,0,100,0.00,40.00,0,-999,0,0.00
2013-5-1,49,38,27,-100,-100,-100,0,0,100,0.00,40.00,0,-999,0,0.00
2013-5-2,64,49,31,-100,-100,-100,0,0,100,0.00,40.00,0,-999,0,0.00
2013-5-3,53,48,44,-100,-100,-100,0,0,100,0.00,40.00,0,-999,0,0.00
2013-5-4,54,48,42,-100,-100,-100,0,0,100,0.00,40.00,0,-999,0,0.00
2013-5-5,68,53,36,-100,-100,-100,0,0,100,0.00,40.00,0,-999,0,0.00
2013-5-6,73,58,42,-100,-100,-100,0,0,100,0.00,40.00,0,-999,0,0.00
2013-5-7,74,61,44,-100,-100,-100,0,0,100,0.00,40.00,0,-999,0,0.00
2013-5-8,77,62,45,-100,-100,-100,0,0,100,0.00,40.00,0,-999,0,0.00
2013-5-9,75,60,47,-100,-100,-100,0,0,100,0.00,40.00,0,-999,0,0.00
2013-5-10,78,64,48,-100,-100,-100,0,0,100,0.00,40.00,0,-999,0,0.00
2013-5-11,78,65,49,-100,-100,-100,0,0,100,0.00,40.00,0,-999,0,0.00
2013-5-12,81,68,52,-100,-100,-100,0,0,100,0.00,40.00,0,-999,0,0.00
2013-5-13,79,66,54,-100,-100,-100,0,0,100,0.00,40.00,0,-999,0,0.00
2013-5-14,67,58,52,-100,-100,-100,0,0,100,0.00,40.00,0,-999,0,0.00
2013-5-15,63,53,41,-100,-100,-100,0,0,100,0.00,40.00,0,-999,0,0.00
2013-5-16,58,51,45,-100,-100,-100,0,0,100,0.00,40.00,0,-999,0,0.00
2013-5-17,54,48,45,-100,-100,-100,0,0,100,0.00,40.00,0,-999,0,0.00
2013-5-18,56,50,44,-100,-100,-100,0,0,100,0.00,40.00,0,-999,0,0.00
2013-5-19,55,51,46,-100,-100,-100,0,0,100,0.00,40.00,0,-999,0,0.00
2013-5-20,69,57,43,-100,-100,-100,0,0,100,0.00,40.00,0,-999,0,0.00
2013-5-21,72,64,44,-100,-100,-100,0,0,100,0.00,40.00,0,-999,0,0.00
2013-5-22,55,49,40,-100,-100,-100,0,0,100,0.00,40.00,0,-999,0,0.00
2013-5-23,55,46,38,-100,-100,-100,0,0,100,0.00,40.00,0,-999,0,0.00
2013-5-24,56,49,39,-100,-100,-100,0,0,100,0.00,40.00,0,-999,0,0.00
2013-5-25,57,48,38,-100,-100,-100,0,0,100,0.00,40.00,0,-999,0,0.00
2013-5-26,66,52,40,-100,-100,-100,0,0,100,0.00,40.00,0,-999,0,0.00
2013-5-27,62,54,45,-100,-100,-100,0,0,100,0.00,40.00,0,-999,0,0.00
2013-5-28,57,52,47,-100,-100,-100,0,0,100,0.00,40.00,0,-999,0,0.00
2013-5-29,67,54,41,-100,-100,-100,0,0,100,0.00,40.00,0,-999,0,0.00
2013-5-30,49,47,45,-100,-100,-100,0,0,100,0.00,40.00,0,-999,0,0.00
2013-5-31,57,53,48,-100,-100,-100,0,0,100,0.00,40.00,0,-999,0,0.00
2013-6-1,68,56,39,-100,-100,-100,0,0,100,0.00,40.00,0,-999,0,0.00
2013-6-2,57,50,45,-100,-100,-100,0,0,100,0.00,40.00,0,-999,0,0.00
2013-6-3,62,52,44,-100,-100,-100,0,0,100,0.00,40.00,0,-999,0,0.00
2013-6-4,63,52,44,-100,-100,-100,0,0,100,0.00,40.00,0,-999,0,0.00
2013-6-5,74,62,44,-100,-100,-100,0,0,100,0.00,40.00,0,-999,0,0.00
2013-6-6,77,67,52,-100,-100,-100,0,0,100,0.00,40.00,0,-999,0,0.00
2013-6-7,75,67,56,-100,-100,-100,0,0,100,0.00,40.00,0,-999,0,0.00
2013-6-8,74,67,60,-100,-100,-100,0,0,100,0.00,40.00,0,-999,0,0.00
2013-6-9,78,67,51,-100,-100,-100,0,0,100,0.00,40.00,0,-999,0,0.00
2013-6-10,76,65,49,-100,-100,-100,0,0,100,0.00,40.00,0,-999,0,0.00
2013-6-11,75,65,52,-100,-100,-100,0,0,100,0.00,40.00,0,-999,0,0.00
2013-6-12,68,60,50,-100,-100,-100,0,0,100,0.00,40.00,0,-999,0,0.00
2013-6-13,61,52,45,-100,-100,-100,0,0,100,0.00,40.00,0,-999,0,0.00
2013-6-14,59,51,44,-100,-100,-100,0,0,100,0.00,40.00,0,-999,0,0.00
2013-6-15,74,61,41,-100,-100,-100,0,0,100,0.00,40.00,0,-999,0,0.00
2013-6-16,76,65,50,-100,-100,-100,0,0,100,0.00,40.00,0,-999,0,0.00
2013-6-17,82,69,51,-100,-100,-100,0,0,100,0.00,40.00,0,-999,0,0.00
2013-6-18,78,68,54,-100,-100,-100,0,0,100,0.00,40.00,0,-999,0,0.00
2013-6-19,65,55,49,-100,-100,-100,0,0,100,0.00,40.00,0,-999,0,0.00
2013-6-20,55,49,46,-100,-100,-100,0,0,100,0.00,40.00,0,-999,0,0.00
2013-6-22,64,59,54,-100,-100,-100,0,0,100,0.00,40.00,0,-999,0,0.00
2013-6-23,74,63,45,-100,-100,-100,0,0,100,0.00,40.00,0,-999,0,0.00
2013-6-24,69,61,56,-100,-100,-100,0,0,100,0.00,40.00,0,-999,0,0.00
2013-6-25,71,60,52,-100,-100,-100,0,0,100,0.00,40.00,0,-999,0,0.00
2013-6-26,68,60,54,-100,-100,-100,0,0,100,0.00,40.00,0,-999,0,0.00
2013-6-27,83,69,53,-100,-100,-100,0,0,100,0.00,40.00,0,-999,0,0.00
2013-6-28,86,75,57,-100,-100,-100,0,0,100,0.00,40.00,0,-999,0,0.00
2013-6-29,83,71,60,-100,-100,-100,0,0,100,0.00,40.00,0,-999,0,0.00
2013-6-30,90,77,61,-100,-100,-100,0,0,100,0.00,40.00,0,-999,0,0.00
2013-7-1,94,79,63,-100,-100,-100,0,0,100,0.00,40.00,0,-999,0,0.00
2013-7-2,94,82,65,-100,-100,-100,0,0,100,0.00,40.00,0,-999,0,0.00
2013-7-3,86,81,68,-100,-100,-100,0,0,100,0.00,40.00,0,-999,0,0.00
2013-7-4,83,75,63,-100,-100,-100,0,0,100,0.00,40.00,0,-999,0,0.00
2013-7-5,80,76,68,-100,-100,-100,0,0,100,0.00,40.00,0,-999,0,0.00
2013-7-6,79,71,53,-100,-100,-100,0,0,100,0.00,40.00,0,-999,0,0.00
2013-7-7,84,75,55,-100,-100,-100,0,0,100,0.00,40.00,0,-999,0,0.00
2013-7-8,77,69,61,-100,-100,-100,0,0,100,0.00,40.00,0,-999,0,0.00
2013-7-9,84,74,56,-100,-100,-100,0,0,100,0.00,40.00,0,-999,0,0.00
2013-7-10,92,80,61,-100,-100,-100,0,0,100,0.00,40.00,0,-999,0,0.00
2013-7-11,80,72,61,-100,-100,-100,0,0,100,0.00,40.00,0,-999,0,0.00
2013-7-12,79,70,57,-100,-100,-100,0,0,100,0.00,40.00,0,-999,0,0.00
2013-7-13,76,71,62,-100,-100,-100,0,0,100,0.00,40.00,0,-999,0,0.00
2013-7-14,83,74,53,-100,-100,-100,0,0,100,0.00,40.00,0,-999,0,0.00
2013-7-15,88,82,59,-100,-100,-100,0,0,100,0.00,40.00,0,-999,0,0.00
2013-7-16,82,74,61,-100,-100,-100,0,0,100,0.00,40.00,0,-999,0,0.00
2013-7-17,88,75,63,-100,-100,-100,0,0,100,0.00,40.00,0,-999,0,0.00
2013-7-23,90,78,61,-100,-100,-100,0,0,100,0.00,40.00,0,-999,0,0.00
2013-7-24,90,85,66,-100,-100,-100,0,0,100,0.00,40.00,0,-999,0,0.00
2013-7-25,90,82,61,-100,-100,-100,0,0,100,0.00,40.00,0,-999,0,0.00
2013-7-26,87,79,63,-100,-100,-100,0,0,100,0.00,40.00,0,-999,0,0.00
2013-7-27,84,78,66,-100,-100,-100,0,0,100,0.00,40.00,0,-999,0,0.00
2013-7-28,83,75,57,-100,-100,-100,0,0,100,0.00,40.00,0,-999,0,0.00
2013-7-29,83,75,56,-100,-100,-100,0,0,100,0.00,40.00,0,-999,0,0.00
2013-7-30,81,72,61,-100,-100,-100,0,0,100,0.00,40.00,0,-999,0,0.00
2013-7-31,81,74,55,-100,-100,-100,0,0,100,0.00,40.00,0,-999,0,0.00
2013-8-1,67,62,57,-100,-100,-100,0,0,100,0.00,40.00,0,-999,0,0.00
2013-8-2,69,59,51,-100,-100,-100,0,0,100,0.00,40.00,0,-999,0,0.00
2013-8-3,75,64,49,-100,-100,-100,0,0,100,0.00,40.00,0,-999,0,0.00
2013-8-4,82,70,51,-100,-100,-100,0,0,100,0.00,40.00,0,-999,0,0.00
2013-8-5,82,74,59,-100,-100,-100,0,0,100,0.00,40.00,0,-999,0,0.00
2013-8-6,82,73,58,-100,-100,-100,0,0,100,0.00,40.00,0,-999,0,0.00
2013-8-7,85,77,61,-100,-100,-100,0,0,100,0.00,40.00,0,-999,0,0.00
2013-8-8,85,77,59,-100,-100,-100,0,0,100,0.00,40.00,0,-999,0,0.00
2013-8-9,81,68,62,-100,-100,-100,0,0,100,0.00,40.00,0,-999,0,0.00
2013-8-10,80,68,55,-100,-100,-100,0,0,100,0.00,40.00,0,-999,0,0.00
2013-8-11,81,69,58,-100,-100,-100,0,0,100,0.00,40.00,0,-999,0,0.00
2013-8-18,86,80,70,-100,-100,-100,0,0,100,0.00,40.00,0,-999,0,0.00
2013-8-19,87,83,70,-100,-100,-100,0,0,100,0.00,40.00,0,-999,0,0.00
2013-8-20,85,80,69,-100,-100,-100,0,0,100,0.00,40.00,0,-999,0,0.00
2013-8-21,83,73,58,-100,-100,-100,0,0,100,0.00,40.00,0,-999,0,0.00
2013-8-22,85,76,62,-100,-100,-100,0,0,100,0.00,40.00,0,-999,0,0.00
2013-8-23,86,73,61,-100,-100,-100,0,0,100,0.00,40.00,0,-999,0,0.00
2013-8-24,84,76,59,-100,-100,-100,0,0,100,0.00,40.00,0,-999,0,0.00
2013-8-25,87,74,64,-100,-100,-100,0,0,100,0.00,40.00,0,-999,0,0.00
2013-10-23,47,43,40,-100,-100,-100,0,0,100,0.00,40.00,0,-999,0,0.00
2013-10-24,60,48,34,-100,-100,-100,0,0,100,0.00,40.00,0,-999,0,0.00
2013-10-25,59,46,37,-100,-100,-100,0,0,100,0.00,40.00,0,-999,0,0.00
2013-10-26,58,48,35,-100,-100,-100,0,0,100,0.00,40.00,0,-999,0,0.00
2013-10-27,52,48,38,-100,-100,-100,0,0,100,0.00,40.00,0,-999,0,0.00
2013-10-28,38,30,25,-100,-100,-100,0,0,100,0.00,40.00,0,-999,0,0.00
2013-10-29,40,30,19,-100,-100,-100,0,0,100,0.00,40.00,0,-999,0,0.00
2013-10-30,46,38,29,-100,-100,-100,0,0,100,0.00,40.00,0,-999,0,0.00
2013-10-31,44,41,39,-100,-100,-100,0,0,100,0.00,40.00,0,-999,0,0.00
2013-11-1,50,42,38,-100,-100,-100,0,0,100,0.00,40.00,0,-999,0,0.00
2013-11-2,55,41,35,-100,-100,-100,0,0,100,0.00,40.00,0,-999,0,0.00
2013-11-3,38,34,29,-100,-100,-100,0,0,100,0.00,40.00,0,-999,0,0.00
2013-11-4,35,29,24,-100,-100,-100,0,0,100,0.00,40.00,0,-999,0,0.00
2013-11-5,36,30,21,-100,-100,-100,0,0,100,0.00,40.00,0,-999,0,0.00
2013-11-6,44,41,36,-100,-100,-100,0,0,100,0.00,40.00,0,-999,0,0.00
2013-11-7,47,40,36,-100,-100,-100,0,0,100,0.00,40.00,0,-999,0,0.00
2013-11-8,41,38,32,-100,-100,-100,0,0,100,0.00,40.00,0,-999,0,0.00
2013-11-9,49,36,28,-100,-100,-100,0,0,100,0.00,40.00,0,-999,0,0.00
2013-11-10,54,42,36,-100,-100,-100,0,0,100,0.00,40.00,0,-999,0,0.00
2013-11-11,52,40,34,-100,-100,-100,0,0,100,0.00,40.00,0,-999,0,0.00
2013-11-12,51,38,32,-100,-100,-100,0,0,100,0.00,40.00,0,-999,0,0.00
2013-11-13,49,45,43,-100,-100,-100,0,0,100,0.00,40.00,0,-999,0,0.00
2013-11-14,46,39,31,-100,-100,-100,0,0,100,0.00,40.00,0,-999,0,0.00
2013-11-15,41,38,34,-100,-100,-100,0,0,100,0.00,40.00,0,-999,0,0.00
2013-11-16,37,32,29,-100,-100,-100,0,0,100,0.00,40.00,0,-999,0,0.00
2013-11-17,36,32,29,-100,-100,-100,0,0,100,0.00,40.00,0,-999,0,0.00
2013-11-18,46,35,28,-100,-100,-100,0,0,100,0.00,40.00,0,-999,0,0.00
2013-11-19,46,42,39,-100,-100,-100,0,0,100,0.00,40.00,0,-999,0,0.00
2013-11-20,41,35,24,-100,-100,-100,0,0,100,0.00,40.00,0,-999,0,0.00
2013-11-21,32,22,14,-100,-100,-100,0,0,100,0.00,40.00,0,-999,0,0.00
2013-11-22,32,23,16,-100,-100,-100,0,0,100,0.00,40.00,0,-999,0,0.00
2013-11-23,33,23,17,-100,-100,-100,0,0,100,0.00,40.00,0,-999,0,0.00
2013-11-24,38,27,20,-100,-100,-100,0,0,100,0.00,40.00,0,-999,0,0.00
2013-11-25,44,32,25,-100,-100,-100,0,0,100,0.00,40.00,0,-999,0,0.00
2013-11-26,45,33,27,-100,-100,-100,0,0,100,0.00,40.00,0,-999,0,0.00
2013-11-27,41,31,27,-100,-100,-100,0,0,100,0.00,40.00,0,-999,0,0.00
2013-11-28,39,29,23,-100,-100,-100,0,0,100,0.00,40.00,0,-999,0,0.00
2013-11-29,50,34,25,-100,-100,-100,0,0,100,0.00,40.00,0,-999,0,0.00
2013-11-30,44,41,38,-100,-100,-100,0,0,100,0.00,40.00,0,-999,0,0.00
2013-12-1,40,38,36,-100,-100,-100,0,0,100,0.00,40.00,0,-999,0,0.00
2013-12-2,42,34,26,-100,-100,-100,0,0,100,0.00,40.00,0,-999,0,0.00
2013-12-3,27,14,6,-100,-100,-100,0,0,100,0.00,40.00,0,-999,0,0.00
2013-12-4,12,6,2,-100,-100,-100,0,0,100,0.00,40.00,0,-999,0,0.00
2013-12-5,12,4,-2,-100,-100,-100,0,0,100,0.00,40.00,0,-999,0,0.00
2013-12-6,4,0,-3,-100,-100,-100,0,0,100,0.00,40.00,0,-999,0,0.00
2013-12-7,5,-4,-7,-100,-100,-100,0,0,100,0.00,40.00,0,-999,0,0.00
2013-12-8,4,-2,-7,-100,-100,-100,0,0,100,0.00,40.00,0,-999,0,0.00
2013-12-9,24,12,3,-100,-100,-100,0,0,100,0.00,40.00,0,-999,0,0.00
2013-12-10,27,25,23,-100,-100,-100,0,0,100,0.00,40.00,0,-999,0,0.00
2013-12-11,33,24,17,-100,-100,-100,0,0,100,0.00,40.00,0,-999,0,0.00
2013-12-12,34,28,23,-100,-100,-100,0,0,100,0.00,40.00,0,-999,0,0.00
2013-12-13,38,34,28,-100,-100,-100,0,0,100,0.00,40.00,0,-999,0,0.00
2013-12-14,40,36,32,-100,-100,-100,0,0,100,0.00,40.00,0,-999,0,0.00
2013-12-15,49,45,39,-100,-100,-100,0,0,100,0.00,40.00,0,-999,0,0.00
2013-12-16,47,37,29,-100,-100,-100,0,0,100,0.00,40.00,0,-999,0,0.00
2013-12-17,49,34,27,-100,-100,-100,0,0,100,0.00,40.00,0,-999,0,0.00
2013-12-18,46,39,33,-100,-100,-100,0,0,100,0.00,40.00,0,-999,0,0.00
2013-12-19,33,26,20,-100,-100,-100,0,0,100,0.00,40.00,0,-999,0,0.00
2013-12-20,31,24,19,-100,-100,-100,0,0,100,0.00,40.00,0,-999,0,0.00
2013-12-21,34,30,23,-100,-100,-100,0,0,100,0.00,40.00,0,-999,0,0.00
2013-12-22,38,35,29,-100,-100,-100,0,0,100,0.00,40.00,0,-999,0,0.00
2013-12-23,42,38,33,-100,-100,-100,0,0,100,0.00,40.00,0,-999,0,0.00
2013-12-24,36,33,24,-100,-100,-100,0,0,100,0.00,40.00,0,-999,0,0.00
2013-12-25,33,26,17,-100,-100,-100,0,0,100,0.00,40.00,0,-999,0,0.00
2013-12-26,50,35,30,-100,-100,-100,0,0,100,0.00,40.00,0,-999,0,0.00
2013-12-27,48,36,30,-100,-100,-100,0,0,100,0.00,40.00,0,-999,0,0.00
2013-12-28,44,36,28,-100,-100,-100,0,0,100,0.00,40.00,0,-999,0,0.00
2013-12-29,38,32,25,-100,-100,-100,0,0,100,0.00,40.00,0,-999,0,0.00
2013-12-30,44,38,31,-100,-100,-100,0,0,100,0.00,40.00,0,-999,0,0.00
2013-12-31,41,38,36,-100,-100,-100,0,0,100,0.00,40.00,0,-999,0,0.00
2014-1-1,39,35,27,-100,-100,-100,0,0,100,0.00,40.00,0,-999,0,0.00
2014-1-2,47,37,26,-100,-100,-100,0,0,100,0.00,40.00,0,-999,0,0.00